Regional Weather Roundup
Issued by NWS Burlington, VT

Home | Current Version | Previous Version | Text Only | Print | Product List | Glossary On
Versions: 1 2 3 4 5 6 7 8 9 10 11 12 13 14 15 16 17 18 19 20 21 22 23 24 25 26 27 28 29 30 31 32 33 34 35 36 37 38 39 40 41 42 43 44 45 46 47 48 49 50
000
ASUS41 KBTV 241810
RWRBTV
VERMONT REGIONAL WEATHER ROUNDUP
NATIONAL WEATHER SERVICE BURLINGTON VT
100 PM EST MON NOV 24 2014

NOTE: "FAIR" INDICATES FEW OR NO CLOUDS BELOW 12,000 FEET WITH NO
SIGNIFICANT WEATHER AND/OR OBSTRUCTIONS TO VISIBILITY.

* THESE REPORTS ARE NOT UNDER NWS QUALITY CONTROL AND/OR DO NOT
  REPORT WEATHER SUCH AS PRECIPITATION AND FOG.

VTZ001>019-241900-
_____VERMONT_____


CITY           SKY/WX    TMP DP  RH WIND       PRES   REMARKS
BURLINGTON     PTCLDY    65  56  72 S20G30    29.41F
6HR MIN TEMP:  48; 6HR MAX TEMP:  65; 6HR PCP:  0.14;

MONTPELIER     CLOUDY    57  50  78 S10       29.52F
6HR MIN TEMP:  45; 6HR MAX TEMP:  58; 6HR PCP:  0.37;

ST. JOHNSBURY*   N/A     57  54  89 MISG      29.49F
6HR MIN TEMP:  36; 6HR MAX TEMP:  57; 6HR PCP:  0.38;

LYNDONVILLE*   CLOUDY    56  53  90 SE14G22   29.52F
6HR MIN TEMP:  42; 6HR MAX TEMP:  56;

MIDDLEBURY*    FAIR      67  57  71 S18G26    29.44F
6HR MIN TEMP:  51; 6HR MAX TEMP:  67; 6HR PCP:  0.03;

RUTLAND*       CLOUDY    66  55  68 S14G20    29.48F
6HR MIN TEMP:  45; 6HR MAX TEMP:  66;

SPRINGFIELD    CLOUDY    59  56  89 SE9       29.53F
6HR MIN TEMP:  36; 6HR MAX TEMP:  59; 6HR PCP:  0.22;

HIGHGATE*      FAIR      65  56  71 S18G31    29.37F
6HR MIN TEMP:  46; 6HR MAX TEMP:  65;

NEWPORT*       CLOUDY    51  50  97 S7        29.47F
6HR MIN TEMP:  43; 6HR MAX TEMP:  51;

BENNINGTON     CLOUDY    67  55  65 S13G20    29.52F
6HR MIN TEMP:  57; 6HR MAX TEMP:  67; 6HR PCP:  0.02;

SUTTON*          N/A     54 N/A N/A MISG        N/A

_____LAKE CHAMPLAIN_____


CITY           SKY/WX    TMP DP  RH WIND       PRES   REMARKS
COLCHESTER RF*   N/A     55  54  94 SW20        N/A
DIAMOND ISL*     N/A     63  57  82 SE20        N/A

$$

NYZ007-026>031-035-052-083-241900-
_____NORTHERN NEW YORK_____


CITY           SKY/WX    TMP DP  RH WIND       PRES   REMARKS
PLATTSBURGH    CLEAR     61  55  81 SE20G29   29.37F
6HR MIN TEMP:  45; 6HR MAX TEMP:  61; 6HR PCP:  0.06;

SARANAC LAKE   CLOUDY    62  50  64 SW22G29   29.38F
6HR MIN TEMP:  51; 6HR MAX TEMP:  63; 6HR PCP: TRACE;

MASSENA        MOCLDY    68  52  56 S26G36    29.28F
6HR MIN TEMP:  53; 6HR MAX TEMP:  69; 6HR PCP:  0.03;

OGDENSBURG*    PTCLDY    66  54  63 S17G28    29.26F
POTSDAM*       PTCLDY    68  55  64 S21G33    29.30F
WATERTOWN      CLOUDY    70  49  47 S15G32    29.28F
6HR MIN TEMP:  60; 6HR MAX TEMP:  71; 6HR PCP: TRACE;

FT DRUM        PTCLDY    67  52  58 S21G32    29.30F
6HR MIN TEMP:  27; 6HR MAX TEMP:  67;

ALBANY         MOCLDY    68  59  73 S21G31    29.49F
6HR MIN TEMP:  47; 6HR MAX TEMP:  68; 6HR PCP:  0.10;

GLENS FALLS    MOCLDY    66  58  75 S15G21    29.45F
6HR MIN TEMP:  44; 6HR MAX TEMP:  66; 6HR PCP:  0.17;


$$
NHZ002-005-011-241900-
_____NEW HAMPSHIRE_____


CITY           SKY/WX    TMP DP  RH WIND       PRES   REMARKS
LEBANON        CLOUDY    62  57  83 S12       29.53F
6HR MIN TEMP:  44; 6HR MAX TEMP:  62; 6HR PCP:  0.15;

KEENE          CLOUDY    64  57  77 S12G22    29.57F
6HR MIN TEMP:  52; 6HR MAX TEMP:  64; 6HR PCP:  0.10;

MT WASHINGTON  LGT RAIN  41  41 100 SW44G60     N/A  VSB 1/16
6HR MIN TEMP:  32; 6HR MAX TEMP:  41; 6HR PCP:  0.27;

PLYMOUTH       CLOUDY    48  48 100 CALM      29.57F FOG
6HR MIN TEMP:  37; 6HR MAX TEMP:  48; 6HR PCP:  0.47;

WHITEFIELD     PTCLDY    65  54  67 S9G23     29.51F
6HR MIN TEMP:  48; 6HR MAX TEMP:  65; 6HR PCP:  0.23;


$$

_____REGIONAL QUEBEC LOCATIONS_____


CITY           SKY/WX    TMP DP  RH WIND       PRES   REMARKS
MONTREAL       MOCLDY    59  54  82 SE15      29.31F
QUEBEC CITY    MOCLDY    45  43  93 NE8       29.40F
SHERBROOKE     MOCLDY    61  54  77 S8        29.45F

_____REGIONAL ONTARIO LOCATIONS_____


CITY           SKY/WX    TMP DP  RH WIND       PRES   REMARKS
OTTAWA         MOCLDY    63  54  72 S20G35    29.23F

______KEY______
VSB  - VISIBILITY IN MILES
WCI  - WIND CHILL INDEX
HX   - HEAT INDEX
$$
NNNN


USA.gov is the U.S. government's official web portal to all federal, state and local government web resources and services.